Location: Easthampton
(42.2676°N, 72.6690°W)
Time: 03:40:03
(UTC+00:00)

RS-44 - Pass Details

Date: 19 April 2024
Orbit: 1174 x 1511 km, 82.5° (Epoch: 27 May)

Event Time Altitude Azimuth Distance (km) Brightness Sun altitude
Rises 00:11:55 0° 168° (SSE) 4,639 ? -7.1°
Reaches altitude 10° 00:14:55 10° 164° (SSE) 3,660 ? -7.6°
Maximum altitude 00:23:27 54° 90° (E) 1,751 ? -9.0°
Drops below altitude 10° 00:31:42 10° 17° (NNE) 3,543 ? -10.4°
Sets 00:34:32 0° 13° (NNE) 4,482 ? -10.9°
